Location: Glendale
(37.4556°N, 88.6714°W)
Time: 13:29:19
(UTC+00:00)

Meteor 1-19 Rocket - Pass Details

Date: 08 December 2019
Orbit: 816 x 918 km, 81.2° (Epoch: 22 January)

Event Time Altitude Azimuth Distance (km) Brightness Sun altitude
Rises 00:42:06 0° 181° (S) 3,411 7.5 -24.3°
Reaches altitude 10° 00:44:32 10° 179° (S) 2,464 6.7 -24.7°
Enters shadow 00:49:49 69° 117° (ESE) 892 4.0 -25.8°
